Regional Weather Roundup
Issued by NWS Little Rock, AR

Home | Current Version | Previous Version | Graphics & Text | Print | Product List | Glossary On
Versions: 1 2 3 4 5 6 7 8 9 10 11 12 13 14 15 16 17 18 19 20 21 22 23 24 25 26 27 28 29 30 31 32 33 34 35 36 37 38 39 40 41 42 43 44 45 46 47 48 49
000
ASUS44 KLZK 280505
RWRLZK

WEATHER ROUNDUP FOR ARKANSAS
NATIONAL WEATHER SERVICE LITTLE ROCK AR
1100 PM CST THU NOV 27 2014

NOTE: "FAIR" INDICATES FEW OR NO CLOUDS BELOW 12,000 FEET WITH NO
SIGNIFICANT WEATHER AND/OR OBSTRUCTIONS TO VISIBILITY.

ARZ001-003-010-029-280600-
NORTHWEST ARKANSAS

CITY           SKY/WX    TMP DP  RH WIND       PRES   REMARKS
FAYETTEVILLE   CLEAR     29  24  82 CALM      30.33F
FORT SMITH     CLEAR     35  28  75 NE5       30.37F WCI  31
HARRISON       CLEAR     31  24  75 SE6       30.34F WCI  25
BENTONVILLE    CLEAR     32  21  64 S3        30.33S
ROGERS         CLEAR     34  24  67 SE7       30.33S WCI  28
SILOAM SPGS    CLEAR     36  19  51 CALM      30.33F
HIGHFILL       CLEAR     33  23  66 S5        30.32F WCI  29
$$

ARZ004-005-016-280600-
NORTH CENTRAL ARKANSAS

CITY           SKY/WX    TMP DP  RH WIND       PRES   REMARKS
BATESVILLE     CLEAR     36  27  69 SE3       30.43F
FLIPPIN        CLEAR     28  21  74 CALM      30.37F
MTN HOME       CLEAR     33  24  69 SE6       30.36F WCI  28
$$

ARZ040-041-280600-
WEST CENTRAL ARKANSAS

CITY           SKY/WX    TMP DP  RH WIND       PRES   REMARKS
MENA           CLEAR     32  30  93 CALM      30.39F
MOUNT IDA      CLEAR     30  27  88 CALM      30.38F
$$

ARZ009-017-025-026-028-280600-
NORTHEAST ARKANSAS

CITY           SKY/WX    TMP DP  RH WIND       PRES   REMARKS
CORNING        FAIR      32  30  93 SE7       30.45S WCI  26
JONESBORO      CLEAR     30  29  96 CALM      30.46S
NEWPORT        CLEAR     33  30  89 S5        30.46F WCI  28
WALNUT RIDGE   PTCLDY    32  27  80 CALM      30.45S
BLYTHEVILLE    CLEAR     37  27  67 SE5       30.46F
$$

ARZ022-023-033-042-044-280600-
CENTRAL ARKANSAS

CITY           SKY/WX    TMP DP  RH WIND       PRES   REMARKS
LITTLE ROCK    PTCLDY    36  28  73 CALM      30.45F
N LITTLE ROCK  PTCLDY    36  31  83 SW5       30.45F
JACKSONVILLE   CLEAR     28  26  89 CALM      30.44F FOG
SEARCY         CLEAR     29  28  96 CALM      30.46F
HOT SPRINGS    CLEAR     32  27  81 E7        30.43F WCI  26
RUSSELLVILLE   CLEAR     36  28  73 CALM      30.40F
CLINTON        FAIR      28  27  93 CALM      30.44F
$$

ARZ036-280600-
EAST ARKANSAS

CITY           SKY/WX    TMP DP  RH WIND       PRES   REMARKS
WEST MEMPHIS   CLEAR     33  29  85 SE5       30.45F FOG     WCI  29
$$

ARZ050-053-066-070-073-280600-
SOUTHWEST ARKANSAS

CITY           SKY/WX    TMP DP  RH WIND       PRES   REMARKS
ARKADELPHIA    FAIR      32  32 100 CALM      30.45F FOG
CAMDEN         CLEAR     32  28  86 CALM      30.47S
TEXARKANA      CLEAR     40  31  70 SE6       30.43F
EL DORADO      CLEAR     35  30  82 E3        30.45F
DE QUEEN       CLEAR     32  30  92 CALM      30.40F
$$

ARZ056-057-069-280600-
SOUTHEAST ARKANSAS

CITY           SKY/WX    TMP DP  RH WIND       PRES   REMARKS
PINE BLUFF     CLEAR     32  29  88 CALM      30.46F
STUTTGART      CLEAR     37  30  75 S7        30.46F
MONTICELLO     CLEAR     33  29  85 CALM      30.46F

$$





USA.gov is the U.S. government's official web portal to all federal, state and local government web resources and services.